Location: Bilsen
(53.7722°N, 9.8765°E)
Time: 09:02:50
(UTC+00:00)

Cosmos 1943 Rocket - Pass Details

Date: 18 February 2020
Orbit: 813 x 842 km, 71.0° (Epoch: 09 April)

Event Time Altitude Azimuth Distance (km) Brightness Sun altitude
Exits shadow 02:31:45 34° 34° (NNE) 1,320 3.5 -35.4°
Maximum altitude 02:32:07 34° 42° (NE) 1,312 3.5 -35.4°
Drops below altitude 10° 02:37:07 10° 107° (ESE) 2,405 5.0 -34.8°
Sets 02:39:45 0° 117° (ESE) 3,334 5.7 -34.4°
